Regional Weather Roundup
Issued by NWS Newport/Morehead, NC

Current Version | Previous Version | Text Only | Print | Product List | Glossary On
Versions: 1 2 3 4 5 6 7 8 9 10 11 12 13 14 15 16 17 18 19 20 21 22 23 24 25 26 27 28 29 30 31 32 33 34 35 36 37 38 39 40 41 42 43 44 45 46 47 48 49 50
000 ASUS42 KMHX 290510 RWRMHX WEATHER ROUNDUP FOR EASTERN NORTH CAROLINA NATIONAL WEATHER SERVICE NEWPORT/MOREHEAD CITY NC 100 AM EDT FRI AUG 29 2014 NOTE: "FAIR" INDICATES FEW OR NO CLOUDS BELOW 12,000 FEET WITH NO SIGNIFICANT WEATHER AND/OR OBSTRUCTIONS TO VISIBILITY NCZ015>017-031-032-045>047-102-103-290600- NORTH COAST CITY SKY/WX TMP DP RH WIND PRES REMARKS EDENTON CLEAR 75 72 88 E3 30.04R ELIZABETH CITY PTCLDY 75 71 87 CALM 30.05R KITTY HAWK MOCLDY 76 72 88 CALM 30.04R MANTEO MOCLDY 75 71 88 CALM 30.05R $$ NCZ045>047-081-094-103-104-290600- CENTRAL COAST CITY SKY/WX TMP DP RH WIND PRES REMARKS FRISCO MOCLDY 75 75 100 E5 30.04R SWANQUARTER N/A 75 N/A N/A E3 30.00S $$ NCZ095-097-098-100-101-290600- SOUTHERN COAST CITY SKY/WX TMP DP RH WIND PRES REMARKS BEAUFORT PTCLDY 80 72 76 SW6 30.04R CEDAR ISLAND N/A 79 N/A N/A S6 30.06S JACKSONVILLE CLEAR 74 69 85 SW3 30.03R NEWPORT NOT AVBL PINEY ISLAND CLOUDY 78 75 90 S5 30.03R WILMINGTON CLEAR 76 69 79 SW5 30.03S $$ NCZ011>013-027>030-043-044-078>080-089-090>093-098-290600- COASTAL PLAIN CITY SKY/WX TMP DP RH WIND PRES REMARKS AHOSKIE PTCLDY 73 71 95 CALM 30.03S CLINTON NOT AVBL ELIZABETHTOWN CLEAR 74 68 79 CALM 30.04R GOLDSBORO CLEAR 76 76 98 S3 30.01R GREENVILLE CLEAR 73 73 100 CALM 30.04R HAVELOCK MOCLDY 75 71 87 SW6 30.04R KENANSVILLE PTCLDY 74 68 82 CALM 30.04S KINSTON CLEAR 75 71 86 S5 30.04R NEW BERN MOCLDY 77 70 79 SW7 30.04R RICHLANDS CLEAR 73 66 78 CALM 30.04R ROANOKE RAPIDS NOT AVBL ROCKY MOUNT CLEAR 74 72 93 CALM 30.02S FOG WASHINGTON CLEAR 74 72 95 CALM 30.03S WHITEVILLE CLEAR 72 67 86 CALM 30.04R $$ AMZ130-135-150-152-154-156-158-170-250-252-270-ANZ085-086-088-633-658-670-290600- MARINE OBSERVATIONS STATION/POSITION TIME TEMP WIND PRES WAVE SWELL AIR SEA DIR/SP/G HT/PER HT/PER (UTC) (F) (DEG/KT/KT) (MB) (FT/S) (FT/S) CHESAPEAKE LIGHT 0400 76 CALM / 1 1018.0 BUOY 44014 0500 76 76 50/ 4/ 6 1017.3 5/ 9 5/ 9 DUCK 0500 77 78 100/ 7/ 9 1016.7 2E DUCK 0400 N/A 3/10 2/11 OREGON INLET 0500 76 80 120/ 4/ 5 1017.2 BUOY 44095 0500 77 N/A 3/ 9 2/11 20E OREGON INLET NOT AVBL HATTERAS CG 0500 78 80 70/ 1/ 3 1017.6 DIAMOND BUOY 0500 80 320/ 2/ 4 1017.2 5/ 8 5/ 8 CAPE LOOKOUT 0400 80 240/ 6/ 7 1016.7 BEAUFORT LAB 0500 80 80 240/ 4/ 6 1016.5 30 SE NEW RIVER 0500 82 81 230/ 12/ 16 1017.2 5/ 9 5/ 9 5 SE WRIGHTSVILL 0500 77 81 230/ 10/ 12 N/A BUOY 41002 0405 81 81 240/ 4/ 6 1018.8 5/ 9 5/ 9 BUOY 41004 0500 82 83 170/ 10/ 12 1017.1 4/ 9 3/ 9 $$

USA.gov is the U.S. government's official web portal to all federal, state and local government web resources and services.